When you browse on this site, cookies collect data to enhance your experience and personalize the content and advertising you see.
Visit our Privacy Policy to learn more. By continuing to use the site, you agree to this use of cookies and data.
  • In Czech Republic
  • List of Countries
  • For 7 days
  • Water Temperature
  • Satellite Maps
  • Weather Map
  • Weather Widgets
  • user-avatar
    Login

    Hourly Weather Cape Coast

    Today, 17 December, Monday

    Time Temperature Precipitation Wind Pressure Humidity
    00:00 +28°C° 0 mm 3 mps 759 mmHg 90%
    01:00 +27°C° 0.3 mm 3 mps 759 mmHg 91%
    02:00 +27°C° 0.3 mm 2 mps 759 mmHg 92%
    03:00 +27°C° 0.3 mm 2 mps 759 mmHg 93%
    04:00 +27°C° 0.2 mm 2 mps 759 mmHg 93%
    05:00 +26°C° 0.2 mm 2 mps 759 mmHg 94%
    06:00 +26°C° 0 mm 2 mps 759 mmHg 94%
    07:00 +28°C° 0 mm 2 mps 759 mmHg 86%
    08:00 +30°C° 0 mm 2 mps 759 mmHg 77%
    09:00 +31°C° 0 mm 2 mps 759 mmHg 68%
    10:00 +35°C° 0 mm 2 mps 759 mmHg 60%
    11:00 +37°C° 0 mm 2 mps 759 mmHg 51%
    12:00 +39°C° 0 mm 2 mps 758 mmHg 43%
    13:00 +38°C° 0 mm 3 mps 758 mmHg 43%
    14:00 +38°C° 0 mm 3 mps 758 mmHg 42%
    15:00 +38°C° 0 mm 4 mps 757 mmHg 42%
    16:00 +36°C° 0 mm 4 mps 757 mmHg 51%
    17:00 +34°C° 0 mm 5 mps 757 mmHg 61%
    18:00 +32°C° 0 mm 5 mps 758 mmHg 70%
    19:00 +30°C° 0 mm 5 mps 758 mmHg 73%
    20:00 +30°C° 0 mm 4 mps 759 mmHg 76%
    21:00 +29°C° 0 mm 4 mps 759 mmHg 79%
    22:00 +29°C° 0 mm 4 mps 759 mmHg 80%
    23:00 +28°C° 0 mm 4 mps 759 mmHg 82%

    Tomorrow, 18 December, Tuesday

    Time Temperature Precipitation Wind Pressure Humidity
    00:00 +28°C° 0 mm 3 mps 759 mmHg 84%
    01:00 +28°C° 0 mm 3 mps 759 mmHg 85%
    02:00 +27°C° 0 mm 3 mps 758 mmHg 86%
    03:00 +27°C° 0 mm 3 mps 758 mmHg 88%
    04:00 +27°C° 0 mm 3 mps 758 mmHg 89%
    05:00 +27°C° 0 mm 3 mps 758 mmHg 90%
    06:00 +27°C° 0 mm 3 mps 758 mmHg 91%
    07:00 +28°C° 0 mm 3 mps 759 mmHg 83%
    08:00 +30°C° 0 mm 4 mps 759 mmHg 76%
    09:00 +33°C° 0 mm 4 mps 760 mmHg 69%
    10:00 +33°C° 0 mm 4 mps 759 mmHg 65%
    11:00 +34°C° 0 mm 4 mps 759 mmHg 61%
    12:00 +35°C° 0 mm 4 mps 759 mmHg 58%
    13:00 +35°C° 0.2 mm 4 mps 758 mmHg 58%
    14:00 +35°C° 0.2 mm 4 mps 758 mmHg 58%
    15:00 +35°C° 0.2 mm 5 mps 757 mmHg 58%
    16:00 +34°C° 0.2 mm 4 mps 758 mmHg 65%
    17:00 +32°C° 0.2 mm 4 mps 758 mmHg 72%
    18:00 +30°C° 0.2 mm 4 mps 758 mmHg 79%
    19:00 +29°C° 0.3 mm 4 mps 759 mmHg 82%
    20:00 +29°C° 0.3 mm 4 mps 759 mmHg 85%
    21:00 +28°C° 0.3 mm 4 mps 760 mmHg 88%
    22:00 +28°C° 0.2 mm 4 mps 760 mmHg 89%
    23:00 +27°C° 0.2 mm 4 mps 760 mmHg 90%

    Day after tomorrow, 19 December, Wednesday

    Time Temperature Precipitation Wind Pressure Humidity
    00:00 +27°C° 0.2 mm 4 mps 760 mmHg 92%
    01:00 +27°C° 0.3 mm 4 mps 759 mmHg 93%
    02:00 +27°C° 0.3 mm 3 mps 759 mmHg 93%
    03:00 +27°C° 0.3 mm 3 mps 758 mmHg 94%
    04:00 +26°C° 0 mm 3 mps 758 mmHg 95%
    05:00 +26°C° 0 mm 3 mps 758 mmHg 95%
    06:00 +26°C° 0 mm 3 mps 759 mmHg 96%
    07:00 +28°C° 0 mm 3 mps 759 mmHg 88%
    08:00 +30°C° 0 mm 4 mps 760 mmHg 81%
    09:00 +32°C° 0 mm 4 mps 760 mmHg 73%
    10:00 +33°C° 0.1 mm 4 mps 760 mmHg 68%
    11:00 +34°C° 0.1 mm 3 mps 759 mmHg 63%
    12:00 +35°C° 0.1 mm 3 mps 759 mmHg 57%
    13:00 +35°C° 0.2 mm 3 mps 758 mmHg 57%
    14:00 +35°C° 0.2 mm 4 mps 758 mmHg 58%
    15:00 +35°C° 0.2 mm 4 mps 757 mmHg 58%
    16:00 +33°C° 0.3 mm 4 mps 757 mmHg 66%
    17:00 +32°C° 0.3 mm 4 mps 757 mmHg 74%
    18:00 +29°C° 0.3 mm 3 mps 758 mmHg 83%
    19:00 +29°C° 0.1 mm 4 mps 758 mmHg 85%
    20:00 +28°C° 0.1 mm 4 mps 759 mmHg 87%
    21:00 +28°C° 0.1 mm 4 mps 760 mmHg 89%
    22:00 +28°C° 0 mm 4 mps 759 mmHg 90%
    23:00 +27°C° 0 mm 4 mps 759 mmHg 91%

    20 December, Thursday

    Time Temperature Precipitation Wind Pressure Humidity
    00:00 +27°C° 0 mm 4 mps 759 mmHg 92%
    01:00 +27°C° 0 mm 3 mps 758 mmHg 93%
    02:00 +27°C° 0 mm 3 mps 758 mmHg 94%
    03:00 +27°C° 0 mm 3 mps 757 mmHg 94%
    04:00 +26°C° 0 mm 3 mps 758 mmHg 95%
    05:00 +26°C° 0 mm 3 mps 758 mmHg 95%
    06:00 +26°C° 0 mm 3 mps 758 mmHg 95%
    07:00 +28°C° 0 mm 3 mps 759 mmHg 88%
    08:00 +29°C° 0 mm 3 mps 759 mmHg 80%
    09:00 +31°C° 0 mm 3 mps 760 mmHg 73%
    10:00 +33°C° 0.1 mm 3 mps 759 mmHg 68%
    11:00 +34°C° 0.1 mm 3 mps 759 mmHg 62%
    12:00 +36°C° 0.1 mm 3 mps 759 mmHg 57%
    13:00 +35°C° 0.3 mm 3 mps 758 mmHg 59%
    14:00 +35°C° 0.3 mm 3 mps 757 mmHg 61%
    15:00 +34°C° 0.3 mm 4 mps 757 mmHg 62%
    16:00 +33°C° 0.5 mm 3 mps 757 mmHg 70%
    17:00 +30°C° 0.5 mm 3 mps 757 mmHg 78%
    18:00 +29°C° 0.5 mm 3 mps 758 mmHg 85%
    19:00 +28°C° 0 mm 4 mps 758 mmHg 87%
    20:00 +28°C° 0 mm 4 mps 759 mmHg 89%
    21:00 +27°C° 0 mm 4 mps 759 mmHg 91%
    22:00 +27°C° 0 mm 4 mps 759 mmHg 92%
    23:00 +27°C° 0 mm 3 mps 759 mmHg 93%

    21 December, Friday

    Time Temperature Precipitation Wind Pressure Humidity
    00:00 +27°C° 0 mm 3 mps 759 mmHg 94%
    01:00 +27°C° 0 mm 3 mps 758 mmHg 95%
    02:00 +27°C° 0 mm 3 mps 758 mmHg 95%
    03:00 +26°C° 0 mm 3 mps 757 mmHg 95%
    04:00 +26°C° 0 mm 3 mps 757 mmHg 96%
    05:00 +26°C° 0 mm 3 mps 758 mmHg 96%
    06:00 +26°C° 0 mm 3 mps 758 mmHg 96%
    07:00 +28°C° 0 mm 3 mps 758 mmHg 89%
    08:00 +29°C° 0 mm 3 mps 759 mmHg 82%
    09:00 +31°C° 0 mm 3 mps 759 mmHg 75%
    10:00 +33°C° 0.3 mm 3 mps 759 mmHg 70%
    11:00 +34°C° 0.3 mm 2 mps 759 mmHg 64%
    12:00 +35°C° 0.3 mm 2 mps 758 mmHg 58%
    13:00 +35°C° 0.2 mm 2 mps 757 mmHg 58%
    14:00 +35°C° 0.2 mm 2 mps 757 mmHg 58%
    15:00 +35°C° 0.2 mm 2 mps 756 mmHg 59%
    16:00 +32°C° 0.2 mm 2 mps 756 mmHg 66%
    17:00 +31°C° 0.2 mm 3 mps 757 mmHg 73%
    18:00 +29°C° 0.2 mm 3 mps 757 mmHg 81%
    19:00 +29°C° 0 mm 3 mps 757 mmHg 83%
    20:00 +28°C° 0 mm 3 mps 758 mmHg 86%
    21:00 +28°C° 0 mm 3 mps 759 mmHg 88%
    22:00 +27°C° 0 mm 3 mps 758 mmHg 89%
    23:00 +27°C° 0 mm 3 mps 758 mmHg 90%

    22 December, Saturday

    Time Temperature Precipitation Wind Pressure Humidity
    00:00 +27°C° 0 mm 3 mps 758 mmHg 91%
    01:00 +27°C° 0.1 mm 3 mps 758 mmHg 92%
    02:00 +27°C° 0.1 mm 3 mps 757 mmHg 93%
    03:00 +26°C° 0.1 mm 3 mps 757 mmHg 94%
    04:00 +26°C° 0 mm 3 mps 757 mmHg 94%
    05:00 +26°C° 0 mm 3 mps 757 mmHg 95%
    06:00 +26°C° 0 mm 3 mps 758 mmHg 96%
    07:00 +28°C° 0 mm 3 mps 758 mmHg 88%
    08:00 +29°C° 0 mm 3 mps 759 mmHg 81%
    09:00 +31°C° 0 mm 3 mps 759 mmHg 73%
    10:00 +33°C° 0.2 mm 3 mps 759 mmHg 68%
    11:00 +34°C° 0.2 mm 3 mps 758 mmHg 62%
    12:00 +35°C° 0.2 mm 3 mps 758 mmHg 56%
    13:00 +35°C° 0.2 mm 3 mps 757 mmHg 57%
    14:00 +34°C° 0.2 mm 3 mps 757 mmHg 58%
    15:00 +34°C° 0.2 mm 3 mps 756 mmHg 60%
    16:00 +33°C° 0.2 mm 3 mps 756 mmHg 67%
    17:00 +30°C° 0.2 mm 3 mps 756 mmHg 75%
    18:00 +29°C° 0.2 mm 3 mps 757 mmHg 82%
    19:00 +28°C° 0.3 mm 4 mps 757 mmHg 85%
    20:00 +28°C° 0.3 mm 4 mps 758 mmHg 88%
    21:00 +27°C° 0.3 mm 4 mps 758 mmHg 90%
    22:00 +27°C° 0 mm 4 mps 758 mmHg 91%
    23:00 +27°C° 0 mm 4 mps 758 mmHg 93%
    Show more